Regional Weather Roundup
Issued by NWS

Home | Current Version | Previous Version | Graphics & Text | Print | Product List | Glossary On
Versions: 1 2 3 4 5 6 7 8 9 10 11 12 13 14 15 16 17 18 19 20 21 22 23 24 25 26 27 28 29 30 31 32 33 34 35 36 37 38 39 40 41 42 43 44 45 46 47 48 49 50
706
ASUS45 KCYS 222310
RWRWY

WYOMING REGIONAL WEATHER ROUNDUP
NATIONAL WEATHER SERVICE CHEYENNE WY
500 PM MDT FRI SEP 22 2017

NOTE:  "FAIR" INDICATES FEW OR NO CLOUDS BELOW 12,000 FEET
WITH NO SIGNIFICANT WEATHER AND/OR OBSTRUCTIONS TO VISIBILITY.

WYZ001-230000-
YELLOWSTONE NATIONAL PARK

CITY           SKY/WX    TMP DP  RH WIND       PRES   REMARKS
LK YELLOWSTONE NOT AVBL
W YELLOWSTONE  NOT AVBL

$$
WYZ002>013-054>058-071-098>099-230000-
NORTHERN WYOMING

CITY           SKY/WX    TMP DP  RH WIND       PRES   REMARKS
JACKSON        CLOUDY    46  29  51 S8        29.90S
CODY           CLOUDY    39  35  86 N9        29.98R WCI  33
GREYBULL       CLOUDY    48  41  76 N8        29.94S
WORLAND        CLOUDY    47  40  76 NW8       29.92S
SHERIDAN       CLOUDY    46  40  79 CALM      29.98R
BUFFALO        CLOUDY    43  37  79 N7        29.97S
GILLETTE       CLOUDY    50  37  61 N13       29.95R
HULETT         CLOUDY    46  36  66 NE8       29.97F
NEWCASTLE      FAIR      55  36  47 N13G22    29.90R

$$
WYZ014>020-022>026-101>103-230000-
CENTRAL WYOMING

CITY           SKY/WX    TMP DP  RH WIND       PRES   REMARKS
BIG PINEY      CLOUDY    47  33  58 S12       29.89R
PINEDALE       DRIZZLE   39  36  87 E12G21    29.91S WCI  32
DUBOIS         CLOUDY    36  34  93 E5        29.92R WCI  32
LANDER           N/A    N/A N/A N/A MISG      29.89S
RIVERTON       LGT RAIN  43  40  89 NW15      29.91R
CASPER         LGT RAIN  52  42  69 E14       29.92R
DOUGLAS        LGT RAIN  53  39  59 N10       29.90F

$$
WYZ021-027>030-104>119-230000-
SOUTHERN WYOMING

CITY           SKY/WX    TMP DP  RH WIND       PRES   REMARKS
EVANSTON       LGT RAIN  40  31  70 SW21G28   29.92R WCI  30
KEMMERER         N/A     43  30  61 W15G21    29.91R
FORT BRIDGER   LGT RAIN  40  40 100 W16       29.94R WCI  31
ROCK SPRINGS   LGT RAIN  46  40  79 N12       29.87R
RAWLINS        PTSUNNY   53  44  71 CALM      29.90F
SARATOGA       FAIR      59  37  44 E12       29.91F
LARAMIE        LGT RAIN  51  38  60 E16       29.95R
CHEYENNE       FAIR      59  36  42 NE21G29   29.88F
TORRINGTON     PTSUNNY   66  35  31 N15       29.86R
PINE BLUFFS    MOCLDY    63  36  36 N18G25    29.90R

$$




USA.gov is the U.S. government's official web portal to all federal, state and local government web resources and services.